N1OTX Weather Reports


time (UTC)temp
F
wind
direction
speed
knots
gust
knots
rain 1hr
in
rain 24hr
in
rain mn
in
humidity
%
barometer
mb
20260503232531 51 336 1.7 6.1 0.00 0.00 0.00 38 1008.1
20260503232031 51 340 1.7 3.5 0.00 0.00 0.00 36 1008.1
20260503231531 51 324 0.9 3.5 0.00 0.00 0.00 38 1008.0
20260503231032 51 337 0.9 2.6 0.00 0.00 0.00 37 1007.9
20260503230550 51 339 1.7 6.1 0.00 0.00 0.00 36 1007.8
20260503230051 52 355 1.7 6.1 0.00 0.00 0.00 36 1007.7
20260503225530 52 1 1.7 6.1 0.00 0.00 0.00 36 1007.7
20260503225030 52 307 0.9 2.6 0.00 0.00 0.00 38 1007.6
20260503224530 52 8 1.7 5.2 0.00 0.00 0.00 36 1007.6
20260503224030 52 5 1.7 5.2 0.00 0.00 0.00 36 1007.6
20260503223529 52 341 1.7 5.2 0.00 0.00 0.00 35 1007.4
20260503223030 52 334 2.6 5.2 0.00 0.00 0.00 36 1007.3
20260503222531 52 334 1.7 5.2 0.00 0.00 0.00 36 1007.3
20260503222031 52 325 1.7 3.5 0.00 0.00 0.00 35 1007.2
20260503221531 52 352 2.6 8.7 0.00 0.00 0.00 35 1007.1
20260503221031 52 330 1.7 5.2 0.00 0.00 0.00 36 1007.1
20260503220531 52 351 1.7 5.2 0.00 0.00 0.00 35 1007.1
20260503220051 52 355 1.7 5.2 0.00 0.00 0.00 36 1007.1
20260503215530 52 355 1.7 5.2 0.00 0.00 0.00 37 1007.0
20260503215031 52 2 0.9 5.2 0.00 0.00 0.00 36 1006.9
20260503214551 52 3 1.7 7.8 0.00 0.00 0.00 36 1006.9
20260503214030 52 342 1.7 7.8 0.00 0.00 0.00 37 1006.8
20260503213529 53 334 1.7 6.1 0.00 0.00 0.00 36 1006.6
20260503213029 53 352 2.6 7.0 0.00 0.00 0.00 36 1006.7
20260503212530 53 355 2.6 6.1 0.00 0.00 0.00 37 1006.6
20260503212029 53 337 2.6 7.0 0.00 0.00 0.00 36 1006.5
20260503211529 53 338 1.7 5.2 0.00 0.00 0.00 38 1006.4
20260503211031 53 326 1.7 5.2 0.00 0.00 0.00 38 1006.4
20260503210531 53 348 1.7 5.2 0.00 0.00 0.00 37 1006.3
20260503210031 53 355 1.7 5.2 0.00 0.00 0.00 36 1006.1
20260503205530 53 345 2.6 6.1 0.00 0.00 0.00 36 1006.0
20260503205031 53 338 1.7 3.5 0.00 0.00 0.00 37 1006.0
20260503204530 53 7 0.9 7.8 0.00 0.00 0.00 37 1005.9
20260503204111 53 360 3.5 7.8 0.00 0.00 0.00 35 1005.9
20260503203530 53 353 3.5 9.6 0.00 0.00 0.00 34 1005.9
20260503203115 53 348 2.6 6.1 0.00 0.00 0.00 36 1005.8
20260503202530 53 357 1.7 7.0 0.00 0.00 0.00 38 1005.9
20260503202030 53 359 2.6 7.0 0.00 0.00 0.00 36 1005.7
20260503201529 53 349 1.7 3.5 0.00 0.00 0.00 37 1005.7
20260503201029 53 297 1.7 5.2 0.00 0.00 0.00 39 1005.8
20260503200529 53 6 1.7 3.5 0.00 0.00 0.00 40 1005.7
20260503200029 53 348 0.9 5.2 0.00 0.00 0.00 40 1005.8
20260503195529 53 349 1.7 6.1 0.00 0.00 0.00 40 1005.8
20260503195031 53 359 1.7 3.5 0.00 0.00 0.00 42 1005.8
20260503194531 53 360 1.7 6.1 0.00 0.00 0.00 40 1005.9
20260503194030 53 355 1.7 3.5 0.00 0.00 0.00 42 1005.9
20260503193530 53 337 1.7 3.5 0.00 0.00 0.00 43 1005.9
20260503193030 52 338 1.7 5.2 0.00 0.00 0.00 42 1005.8
20260503192551 53 350 3.5 7.8 0.00 0.00 0.00 42 1005.9
20260503192030 53 318 1.7 5.2 0.00 0.00 0.00 42 1005.9
20260503191530 54 353 2.6 7.0 0.00 0.00 0.00 42 1005.9
20260503191030 54 4 2.6 6.1 0.00 0.00 0.00 42 1005.9
20260503190530 54 356 1.7 5.2 0.00 0.00 0.00 43 1005.8
20260503190050 53 350 1.7 5.2 0.00 0.00 0.00 44 1005.9
20260503185530 53 337 2.6 7.8 0.00 0.00 0.00 43 1005.9
20260503185030 53 355 2.6 7.8 0.00 0.00 0.00 43 1006.0
20260503184529 53 330 3.5 7.0 0.00 0.00 0.00 44 1005.9
20260503184029 53 5 3.5 7.8 0.00 0.00 0.00 43 1005.9
20260503183529 53 354 1.7 5.2 0.00 0.00 0.00 45 1005.9
20260503183049 52 350 1.7 5.2 0.00 0.00 0.00 47 1006.0
20260503182529 52 356 2.6 6.1 0.00 0.00 0.00 46 1006.0
20260503182031 52 3 2.6 7.0 0.00 0.00 0.00 47 1006.2
20260503181532 52 340 1.7 6.1 0.00 0.00 0.00 49 1006.1
20260503181031 51 1 2.6 7.0 0.00 0.00 0.00 50 1006.1
20260503180530 51 346 1.7 5.2 0.00 0.00 0.00 49 1006.1
20260503180030 51 356 1.7 6.1 0.00 0.00 0.00 50 1006.1
20260503175610 51 2 3.5 7.8 0.00 0.00 0.00 49 1006.1
20260503175030 52 335 3.5 8.7 0.00 0.00 0.00 49 1006.0
20260503174530 52 357 3.5 9.6 0.00 0.00 0.00 48 1006.0
20260503174030 52 0 1.7 6.1 0.00 0.00 0.00 48 1006.0
20260503173529 52 353 3.5 7.8 0.00 0.00 0.00 48 1006.0
20260503173034 52 353 3.5 7.8 0.00 0.00 0.00 47 1006.1
20260503172529 52 357 3.5 7.0 0.00 0.00 0.00 47 1006.0
20260503172029 52 330 2.6 7.0 0.00 0.00 0.00 48 1005.9
20260503171529 51 359 3.5 7.8 0.00 0.00 0.00 47 1006.0
20260503171029 51 18 5.2 12.2 0.00 0.00 0.00 46 1006.0
20260503170531 51 4 2.6 8.7 0.00 0.00 0.00 47 1006.0
20260503150549 47 359 2.6 7.8 0.00 0.00 0.00 71 1006.1
20260503150109 47 329 2.6 6.1 0.00 0.00 0.00 73 1006.0
20260503140110 44 343 1.7 7.8 0.00 0.00 0.00 81 1006.3
20260503131050 44 345 1.7 5.2 0.00 0.03 0.00 82 1006.6
20260503130530 44 2 1.7 5.2 0.00 0.04 0.00 81 1006.6
20260503110531 42 337 0.9 2.6 0.00 0.06 0.00 80 1007.0
20260503100109 43 310 0.0 1.7 0.00 0.06 0.00 81 1007.1
20260503081030 45 9 0.9 1.7 0.00 0.06 0.00 80 1008.0
20260503080529 45 4 0.9 1.7 0.00 0.06 0.00 81 1008.3
20260503072530 45 356 0.0 1.7 0.00 0.06 0.00 84 1008.3
20260503072030 45 356 0.0 1.7 0.00 0.06 0.00 84 1008.3
20260503071530 45 0.0 0.0 0.00 0.06 0.00 84 1008.5
20260503071030 45 0.0 0.0 0.00 0.06 0.00 84 1008.5
20260503070550 45 0.0 0.0 0.00 0.06 0.00 83 1008.4
20260503055030 46 0.0 0.0 0.00 0.06 0.00 83 1009.5
20260503054530 46 0.0 0.0 0.00 0.06 0.00 83 1009.4
20260503054030 47 352 0.0 1.7 0.00 0.06 0.00 82 1009.3
20260503053529 47 0.0 0.0 0.00 0.06 0.00 82 1009.3
20260503053029 47 0.0 0.9 0.00 0.06 0.00 81 1009.4
20260503052529 47 352 0.0 2.6 0.00 0.06 0.00 81 1009.3
20260503052029 47 349 0.9 2.6 0.00 0.06 0.00 80 1009.4
20260503051529 47 347 0.9 1.7 0.00 0.06 0.00 80 1009.5
20260503051029 47 335 0.9 1.7 0.00 0.06 0.00 80 1009.7
20260503050528 47 357 0.9 2.6 0.00 0.06 0.00 80 1009.7
20260503050031 47 351 0.0 1.7 0.00 0.06 0.00 79 1009.8
20260503045530 48 358 0.9 2.6 0.00 0.06 0.00 79 1009.8
20260503045030 48 3 0.9 1.7 0.00 0.06 0.00 79 1009.7
20260503044530 48 10 0.0 1.7 0.00 0.06 0.00 79 1009.9
20260503044030 48 10 0.0 1.7 0.00 0.06 0.00 79 1009.8
20260503043550 48 10 0.9 1.7 0.00 0.06 0.00 80 1010.0
20260503043050 48 12 0.0 0.9 0.00 0.06 0.00 81 1010.2
20260503042529 48 12 0.0 1.7 0.00 0.06 0.00 81 1010.2
20260503042029 48 356 1.7 2.6 0.00 0.06 0.00 81 1010.2
20260503041611 48 332 0.9 2.6 0.00 0.06 0.00 82 1010.3
20260503041029 48 199 0.0 0.9 0.00 0.06 0.00 84 1010.4
20260503040549 48 199 0.0 0.9 0.00 0.06 0.00 85 1010.3
20260503040031 48 199 0.0 0.9 0.00 0.06 0.00 86 1010.2
20260503035530 48 199 0.0 0.9 0.00 0.06 0.06 87 1010.2
20260503035031 48 199 0.0 0.9 0.00 0.06 0.06 87 1010.2
20260503034530 48 198 0.0 0.9 0.00 0.06 0.06 88 1010.3
20260503034111 49 0.0 0.0 0.00 0.06 0.06 88 1010.3
20260503033530 48 0.0 0.0 0.00 0.06 0.06 89 1010.3
20260503033030 48 0.0 0.0 0.00 0.06 0.06 89 1010.4
20260503032610 49 0.0 0.0 0.00 0.06 0.06 89 1010.2
20260503032050 49 199 0.0 0.9 0.00 0.06 0.06 89 1010.4
20260503031529 49 0.0 0.0 0.00 0.06 0.06 89 1010.4
20260503031029 49 0.0 0.0 0.00 0.06 0.06 89 1010.4
20260503030529 49 0.0 0.0 0.00 0.06 0.06 88 1010.4
20260503030029 49 0.0 0.0 0.00 0.06 0.06 88 1010.4
20260503025531 49 0.0 0.0 0.00 0.06 0.06 88 1010.3
20260503025031 49 0.0 0.0 0.00 0.06 0.06 88 1010.2
20260503024531 49 0.0 0.0 0.00 0.06 0.06 88 1010.3
20260503024030 49 0.0 0.0 0.00 0.06 0.06 88 1010.4
20260503023530 49 0.0 0.0 0.00 0.06 0.06 87 1010.3
20260503023030 49 0.0 0.0 0.00 0.06 0.06 87 1010.3
20260503022550 49 0.0 0.0 0.00 0.06 0.06 87 1010.3
20260503022030 49 0.0 0.0 0.00 0.06 0.06 87 1010.4
20260503021530 49 0.0 0.0 0.00 0.06 0.06 87 1010.4
20260503021030 49 0.0 0.0 0.00 0.06 0.06 87 1010.6
20260503020529 49 0.0 0.0 0.00 0.06 0.06 87 1010.7
20260503020030 49 0.0 0.0 0.00 0.06 0.06 87 1010.8
20260503015529 49 0.0 0.0 0.00 0.06 0.06 86 1010.8
20260503015049 49 0.0 0.0 0.00 0.06 0.06 86 1010.8
20260503014529 50 0.0 0.0 0.00 0.06 0.06 85 1010.9
20260503014031 50 0.0 0.0 0.00 0.06 0.06 85 1010.9
20260503013530 50 0.0 0.0 0.00 0.06 0.06 84 1010.9
20260503013031 50 0.0 0.0 0.00 0.06 0.06 83 1010.9
20260503012530 50 0.0 0.0 0.00 0.06 0.06 83 1010.8
20260503012030 50 0.0 0.0 0.00 0.06 0.06 82 1010.9
20260503011530 50 0.0 0.0 0.00 0.06 0.06 81 1010.8
20260503011030 50 199 0.0 0.9 0.00 0.06 0.06 81 1010.7
20260503010530 50 199 0.0 0.9 0.00 0.06 0.06 81 1010.7
20260503010030 50 199 0.0 0.9 0.00 0.06 0.06 81 1010.7
20260503005529 50 199 0.0 0.9 0.00 0.06 0.06 82 1010.6
20260503005030 50 199 0.0 0.9 0.00 0.06 0.06 82 1010.5
20260503004650 50 199 0.0 0.9 0.00 0.06 0.06 83 1010.6
20260503004029 50 198 0.0 0.9 0.00 0.06 0.06 84 1010.5
20260503003529 50 0.0 0.0 0.00 0.06 0.06 84 1010.6
20260503003029 50 0.0 0.0 0.00 0.06 0.06 83 1010.5
20260503002531 50 0.0 0.0 0.00 0.06 0.06 82 1010.4
20260503002030 51 0.0 0.0 0.00 0.06 0.06 82 1010.4
20260503001551 51 0.0 0.0 0.00 0.06 0.06 81 1010.3
20260503001031 51 0.0 0.0 0.00 0.06 0.06 80 1010.2
20260503000530 51 0.0 0.9 0.00 0.06 0.06 80 1010.3
20260503000030 51 198 0.0 0.9 0.00 0.06 0.06 79 1010.2
20260502235530 51 198 0.0 0.9 0.00 0.06 0.06 79 1010.1
20260502235030 51 0.0 0.0 0.00 0.06 0.06 78 1010.1
20260502234529 52 0.0 1.7 0.00 0.06 0.06 77 1010.1
20260502234030 52 192 0.0 1.7 0.00 0.06 0.06 77 1010.0
20260502233609 52 172 0.0 1.7 0.00 0.06 0.06 77 1010.1
20260502233029 52 150 0.0 2.6 0.00 0.06 0.06 77 1010.0